STARLINK-11194, 60187

Orbit data source: Space-Track

STARLINK-11194, 60187 is a payload satellite owned by SpaceX/Seattle (US) in LEO that was launched on Wed, 03 Jul 2024 UTC via an FALCON 9 launch vehicle from the Air Force Eastern Test Range (AFETR). Payloads include a variety of satellites, spacecraft, and rockets equipped with specific instruments for various scientific and technological missions. These include communications satellites like Starlink; space stations such as the ISS; scientific satellites like the Hubble; Earth observation satellites from companies like Planet Labs, Umbra, and HawkEye 360; GPS; miniature CubeSats for education and research; and military/defense satellites.

Loading next visibility...
STARLINK-11194 details
Identifier
60187, 2024-124E
Orbit
LEO
Last TLE update22 hours ago
Origin
Flag of USSpaceX/Seattle (US)
ManufacturerSpaceX/Seattle
MissionOperational Commercial Communications
Bus & MotorSTARLINK V2M, Unknown motor
Mass730 kg wet, ~700 kg dry
Launch date (UTC)
2024-07-03 (7 months ago)
Launch vehicle
FALCON 9
Launch site
Air Force Eastern Test Range (AFETR)
Object type
Payload
Rocket body
Debris
Shape & HBRBox + 2 Pan, 29 m
Radar Cross Section36.964 m², Large (>1 m²)

Expand to show TLE details & history

TLE from 22 hours ago
0 STARLINK-11194
1 60187U 24124E   25037.19126715  .00005029  00000-0  46353-4 0  9995
2 60187  53.1571 315.5442 0001186 110.1017 250.0129 15.69703754 35450
Epoch: 2025-02-06T04:35Z
Definitive object data (Epoch: 2025-02-06T04:35:25.481Z)
Latitude-0°
Longitude110.11663°
Altitude360.933 km
Speed7.694 km/s
True Right ascension21h 02m 10s
True Declination0° 00' 00"
Sunlit
Object was in daylight at TLE epoch
Visualization TLE readout
Latitude-11.96818°
Longitude-65.3618°
Altitude362.829 km
Speed7.692 km/s
Apparent Right ascension12h 17m 30s
Apparent Declination-40° 32' 22"
Sunlit
Object is in full shadow
Visualization observer readout
Local Sidereal Time04:58:02
Azimuth114.969° SE
Elevation-37.962°
Doppler factor1
Orbital elements
Apogee altitude360.805 km
Perigee altitude359.207 km
Semi-major axis6,738.143 km
Eccentricity0.0001186
Inclination53.1571°
RAAN315.5442°
Arg. of periapsis110.1017°
True anomaly250.00013°
Mean anomaly250.0129°
Eccentric anomaly250.00651°
Mean motion3.92403 °/min
BSTAR0.000046353
Orbital period91.74 mins
Loading maneuver chart data...
Loading historical data...
Loading historical data...
Loading historical data...
Loading historical data...
Loading historical data...
Loading historical data...
Loading historical data...

STARLINK-11194 Visibility forecast

Observer location: undefined°, undefined

Span
Click to sort rows by Start time (UTC) header in descending order
Start Az.
Max El. time (UTC)
Max El. Az.
Max El.
End time (UTC)
End Az.
5 mins2025-02-07 04:00:34.900Z307.461° NW2025-02-07 04:03:34.900Z148.884° SSE40.307°2025-02-07 04:05:34.900Z135.084° SSE
4 mins2025-02-07 20:30:34.900Z201.746° SSW2025-02-07 20:31:34.900Z169.669° S35.438°2025-02-07 20:34:34.900Z60.702° ENE
|